Simultaneous Nadir Overpasses (SNOs) Predictions

Prediction of SNOs between NOAA-19 and TERRA Satellite Orbit:

Table of predicted SNOs for the next 14.0 days since TLE Epoch: 11/2/2019
Index Date (NOAA-19) Time (NOAA-19) Lat,Lon (NOAA-19) SZA (NOAA-19 ) Date (TERRA) Time (TERRA) Lat,Lon (TERRA) SZA (TERRA ) Distance(km) Time Diff (sec)
1 11/04/2019 01:26:11 78.91,-177.18 95.38 11/04/2019 01:26:32 78.89,-177.16 95.37 2.63 21
2 11/04/2019 02:17:13 -78.80, -9.09 84.64 11/04/2019 02:15:59 -78.90, -9.47 84.61 13.62 74
3 11/06/2019 06:59:38 -78.91, -80.43 83.94 11/06/2019 07:00:16 -78.91, -80.46 83.93 0.71 38
4 11/06/2019 07:50:33 78.90, 86.93 96.07 11/06/2019 07:49:43 78.86, 86.89 96.02 3.96 50
5 11/08/2019 12:32:56 78.94, 16.10 96.73 11/08/2019 12:33:59 78.91, 16.11 96.73 3.12 63
6 11/08/2019 13:24:00 -78.90,-176.35 83.27 11/08/2019 13:23:27 -78.89,-176.41 83.30 2.00 33
7 11/10/2019 18:06:33 -79.26, 110.14 82.57 11/10/2019 18:07:37 -79.17, 114.25 82.27 86.07 64
8 11/10/2019 18:57:18 78.93, -79.80 97.38 11/10/2019 18:57:09 78.92, -79.63 97.38 3.57 9
9 11/13/2019 00:30:44 -78.91, 17.08 82.02 11/13/2019 00:30:53 -78.94, 17.05 81.99 3.75 9
10 11/13/2019 01:21:30 78.57,-173.21 97.92 11/13/2019 01:20:26 78.64,-177.01 97.60 83.82 64
11 11/15/2019 06:04:03 78.96, 113.46 98.58 11/15/2019 06:04:36 78.93, 113.53 98.57 3.88 33




NCC Satellite Simultaneous Nadir Overpasses (SNOs) Prediction Service
